Domov               UVHVVR             MKGP            O straneh              
ZDRAVSTVENO VARSTVO RASTLIN
  MREŽA AGROMET. POSTAJ
 ► PROGNOSTIČNA OBVESTILA
AGROMETEOROLOŠKI PODATKI -
ARSO
OBVLADOVANJE TVEGANJ ZARADI
NEUGODNIH VREMENSKIH RAZMER
  ► NARAVNE NESREČE
  ► SUŠA/MOČA
  ► NAMAKANJE
  ► ŽLED (gozdarstvo)
KARTOGRAFSKI PRIKAZI
SPLETNE POVEZAVE
PROJEKTI IN PUBLIKACIJE

AGROMETEOROLOŠKA MREŽA: VREMENSKE POSTAJE IN FENOLOŠKA OPAZOVANJA

Pregled podatkov za lokacijo Godemarci, meteorološka postaja 37828

Pregled senzorjev na lokaciji

ID Ime Zadnja
vrednost
Datum
zadnje
spremembe
Tip
senzorja
3800 Temperatura 2 m (°C) -1,66 °C 16.12.2017 19:00 50YA
3801 Relativna vlaga 2 m (% RH) 99,61 % RH 16.12.2017 19:00 50YA
3802 Padavine (mm) 0 mm 16.12.2017 19:00 Rain-O-Matic

Pregled podatkov zadnjih 24 ur

Zap.
št.
Datum in čas Godemarci
Padavine Relativna
vlaga
2
m
Temperatura
2
m
0 16.12.2017 19:00 0 99,61 -1,66
1 16.12.2017 18:30 0 98,14 -1,37
2 16.12.2017 18:00 0 97,39 -0,46
3 16.12.2017 17:30 0 96,02 0
4 16.12.2017 17:00 0 92,72 1,05
5 16.12.2017 16:30 0 88,16 2,32
6 16.12.2017 16:00 0 82,03 3,69
7 16.12.2017 15:30 0 80 4,42
8 16.12.2017 15:00 0 78,46 4,96
9 16.12.2017 14:30 0 75,31 5,49
10 16.12.2017 14:00 0 73,99 5,74
11 16.12.2017 13:30 0 73,43 5,71
12 16.12.2017 13:00 0 74,36 5,67
13 16.12.2017 12:30 0 75,43 5,23
14 16.12.2017 12:00 0 76,78 4,93
15 16.12.2017 11:30 0 78,66 4,96
16 16.12.2017 11:00 0 84,81 4,15
17 16.12.2017 10:30 0 86,59 3,86
18 16.12.2017 10:00 0 90,87 3,25
19 16.12.2017 09:30 0 92,48 2,71
20 16.12.2017 09:00 0 94,19 2,37
21 16.12.2017 08:30 0 97,61 2,22
22 16.12.2017 08:00 0 99,93 2,05
23 16.12.2017 07:30 0,2 99,93 2,05
24 16.12.2017 07:00 0 99,93 1,9
25 16.12.2017 06:30 0 99,93 1,68
26 16.12.2017 06:00 0 99,93 1,44
27 16.12.2017 05:30 0 99,93 1,54
28 16.12.2017 05:00 0 99,93 1,76
29 16.12.2017 04:30 0 99,93 1,86
30 16.12.2017 04:00 0 99,93 1,9
31 16.12.2017 03:30 0 99,93 1,93
32 16.12.2017 03:00 0,2 99,93 1,93
33 16.12.2017 02:30 0 99,93 2
34 16.12.2017 02:00 0 99,93 2,08
35 16.12.2017 01:30 0 99,93 2,12
36 16.12.2017 01:00 0,2 99,93 2,2
37 16.12.2017 00:30 0 99,93 2,1
38 16.12.2017 00:00 0,2 99,93 2,08
39 15.12.2017 23:30 0,2 99,93 2,1
40 15.12.2017 23:00 0 99,93 2,1
41 15.12.2017 22:30 0 99,93 2,17
42 15.12.2017 22:00 0 99,93 2,12
43 15.12.2017 21:30 0,6 99,93 2,25
44 15.12.2017 21:00 0,8 99,93 2,44
45 15.12.2017 20:30 1 99,93 2,69
46 15.12.2017 20:00 0,8 99,93 2,98
© 2011 Ministrstvo za kmetijstvo, gozdarstvo in prehrano. Vse pravice pridržane.